When you browse on this site, cookies collect data to enhance your experience and personalize the content and advertising you see.
Visit our Privacy Policy to learn more. By continuing to use the site, you agree to this use of cookies and data.
  • In Spain
  • List of Countries
  • For 7 days
  • Water Temperature
  • Weather Map
  • Weather Widgets
  • user-avatar
    Login

    Hourly Weather São Paulo

    Today, 22 February, Saturday

    Time Temperature Precipitation Wind Pressure Humidity
    00:00 +23°C° 0 mm 1 mps 697 mmHg 85%
    01:00 +23°C° 0 mm 1 mps 697 mmHg 85%
    02:00 +22°C° 0 mm 1 mps 697 mmHg 86%
    03:00 +22°C° 0 mm 1 mps 697 mmHg 87%
    04:00 +22°C° 0 mm 1 mps 697 mmHg 87%
    05:00 +22°C° 0 mm 1 mps 698 mmHg 87%
    06:00 +21°C° 0 mm 2 mps 698 mmHg 87%
    07:00 +21°C° 0.2 mm 2 mps 699 mmHg 84%
    08:00 +22°C° 0.2 mm 3 mps 699 mmHg 81%
    09:00 +22°C° 0 mm 4 mps 700 mmHg 79%
    10:00 +22°C° 0.1 mm 4 mps 699 mmHg 77%
    11:00 +22°C° 0.1 mm 4 mps 699 mmHg 75%
    12:00 +22°C° 0.1 mm 4 mps 699 mmHg 73%
    13:00 +22°C° 0 mm 4 mps 699 mmHg 75%
    14:00 +22°C° 0 mm 4 mps 699 mmHg 76%
    15:00 +21°C° 0 mm 4 mps 698 mmHg 78%
    16:00 +21°C° 0.1 mm 4 mps 699 mmHg 80%
    17:00 +21°C° 0.1 mm 4 mps 699 mmHg 82%
    18:00 +20°C° 0.1 mm 4 mps 699 mmHg 83%
    19:00 +20°C° 0.1 mm 4 mps 699 mmHg 83%
    20:00 +20°C° 0.1 mm 4 mps 700 mmHg 83%
    21:00 +19°C° 0.1 mm 4 mps 700 mmHg 83%
    22:00 +19°C° 0.1 mm 4 mps 700 mmHg 83%
    23:00 +19°C° 0.1 mm 4 mps 700 mmHg 83%

    Tomorrow, 23 February, Sunday

    Time Temperature Precipitation Wind Pressure Humidity
    00:00 +19°C° 0.1 mm 3 mps 700 mmHg 83%
    01:00 +19°C° 0.1 mm 3 mps 700 mmHg 84%
    02:00 +19°C° 0.1 mm 3 mps 699 mmHg 84%
    03:00 +18°C° 0.1 mm 4 mps 699 mmHg 85%
    04:00 +18°C° 0 mm 3 mps 699 mmHg 85%
    05:00 +18°C° 0 mm 3 mps 699 mmHg 86%
    06:00 +18°C° 0 mm 3 mps 700 mmHg 86%
    07:00 +18°C° 0 mm 3 mps 700 mmHg 82%
    08:00 +19°C° 0 mm 3 mps 700 mmHg 77%
    09:00 +20°C° 0 mm 3 mps 701 mmHg 73%
    10:00 +21°C° 0 mm 3 mps 701 mmHg 68%
    11:00 +24°C° 0 mm 3 mps 701 mmHg 64%
    12:00 +25°C° 0 mm 3 mps 701 mmHg 59%
    13:00 +25°C° 0 mm 4 mps 701 mmHg 60%
    14:00 +23°C° 0 mm 4 mps 700 mmHg 62%
    15:00 +23°C° 0 mm 4 mps 699 mmHg 63%
    16:00 +22°C° 0 mm 4 mps 699 mmHg 66%
    17:00 +21°C° 0 mm 4 mps 699 mmHg 69%
    18:00 +21°C° 0 mm 4 mps 699 mmHg 71%
    19:00 +20°C° 0 mm 4 mps 699 mmHg 75%
    20:00 +19°C° 0 mm 4 mps 699 mmHg 79%
    21:00 +19°C° 0 mm 3 mps 700 mmHg 82%
    22:00 +18°C° 0 mm 3 mps 700 mmHg 83%
    23:00 +18°C° 0 mm 3 mps 699 mmHg 83%

    Day after tomorrow, 24 February, Monday

    Time Temperature Precipitation Wind Pressure Humidity
    00:00 +18°C° 0 mm 2 mps 699 mmHg 84%
    01:00 +18°C° 0 mm 2 mps 699 mmHg 84%
    02:00 +18°C° 0 mm 2 mps 698 mmHg 84%
    03:00 +18°C° 0 mm 2 mps 698 mmHg 84%
    04:00 +18°C° 0 mm 2 mps 698 mmHg 84%
    05:00 +18°C° 0 mm 2 mps 698 mmHg 84%
    06:00 +18°C° 0 mm 2 mps 698 mmHg 84%
    07:00 +19°C° 0 mm 2 mps 699 mmHg 79%
    08:00 +21°C° 0 mm 2 mps 699 mmHg 74%
    09:00 +23°C° 0 mm 2 mps 700 mmHg 68%
    10:00 +24°C° 0.1 mm 2 mps 700 mmHg 67%
    11:00 +25°C° 0.1 mm 2 mps 700 mmHg 65%
    12:00 +27°C° 0.1 mm 2 mps 700 mmHg 64%
    13:00 +26°C° 0.6 mm 2 mps 699 mmHg 67%
    14:00 +26°C° 0.6 mm 1 mps 699 mmHg 70%
    15:00 +25°C° 0.6 mm 1 mps 698 mmHg 73%
    16:00 +25°C° 0.3 mm 1 mps 698 mmHg 75%
    17:00 +25°C° 0.3 mm 2 mps 697 mmHg 76%
    18:00 +24°C° 0.3 mm 2 mps 697 mmHg 78%
    19:00 +24°C° 0 mm 2 mps 697 mmHg 81%
    20:00 +23°C° 0 mm 2 mps 697 mmHg 83%
    21:00 +23°C° 0 mm 2 mps 698 mmHg 86%
    22:00 +21°C° 0 mm 2 mps 698 mmHg 87%
    23:00 +21°C° 0 mm 2 mps 697 mmHg 87%

    25 February, Tuesday

    Time Temperature Precipitation Wind Pressure Humidity
    00:00 +21°C° 0 mm 2 mps 697 mmHg 88%
    01:00 +21°C° 0 mm 2 mps 697 mmHg 88%
    02:00 +21°C° 0 mm 2 mps 697 mmHg 88%
    03:00 +22°C° 0 mm 1 mps 696 mmHg 88%
    04:00 +21°C° 0 mm 1 mps 697 mmHg 88%
    05:00 +21°C° 0 mm 1 mps 697 mmHg 87%
    06:00 +21°C° 0 mm 1 mps 697 mmHg 86%
    07:00 +23°C° 0 mm 2 mps 697 mmHg 80%
    08:00 +25°C° 0 mm 2 mps 698 mmHg 74%
    09:00 +26°C° 0 mm 3 mps 698 mmHg 68%
    10:00 +28°C° 0.2 mm 3 mps 698 mmHg 65%
    11:00 +29°C° 0.2 mm 3 mps 698 mmHg 61%
    12:00 +30°C° 0.2 mm 3 mps 698 mmHg 58%
    13:00 +30°C° 0.5 mm 3 mps 697 mmHg 59%
    14:00 +30°C° 0.5 mm 3 mps 697 mmHg 60%
    15:00 +30°C° 0.5 mm 2 mps 696 mmHg 62%
    16:00 +29°C° 1.2 mm 2 mps 696 mmHg 66%
    17:00 +28°C° 1.2 mm 2 mps 696 mmHg 70%
    18:00 +27°C° 1.2 mm 1 mps 695 mmHg 74%
    19:00 +27°C° 0.4 mm 1 mps 696 mmHg 76%
    20:00 +26°C° 0.4 mm 1 mps 696 mmHg 78%
    21:00 +25°C° 0.4 mm 2 mps 696 mmHg 79%
    22:00 +25°C° 0.3 mm 2 mps 696 mmHg 80%
    23:00 +25°C° 0.3 mm 2 mps 696 mmHg 80%

    26 February, Wednesday

    Time Temperature Precipitation Wind Pressure Humidity
    00:00 +25°C° 0.3 mm 2 mps 695 mmHg 80%
    01:00 +25°C° 1.9 mm 2 mps 695 mmHg 81%
    02:00 +24°C° 1.9 mm 2 mps 695 mmHg 82%
    03:00 +24°C° 1.9 mm 3 mps 694 mmHg 84%
    04:00 +24°C° 2.2 mm 2 mps 694 mmHg 85%
    05:00 +24°C° 2.2 mm 2 mps 694 mmHg 87%
    06:00 +24°C° 2.2 mm 2 mps 694 mmHg 88%
    07:00 +24°C° 0.1 mm 3 mps 694 mmHg 86%
    08:00 +23°C° 0.1 mm 4 mps 694 mmHg 84%
    09:00 +25°C° 0.1 mm 4 mps 694 mmHg 81%
    10:00 +25°C° 0.1 mm 5 mps 694 mmHg 79%
    11:00 +26°C° 0.1 mm 6 mps 694 mmHg 76%
    12:00 +27°C° 0.1 mm 7 mps 694 mmHg 73%
    13:00 +27°C° 1 mm 6 mps 694 mmHg 75%
    14:00 +26°C° 1 mm 6 mps 693 mmHg 76%
    15:00 +26°C° 1 mm 6 mps 693 mmHg 77%
    16:00 +25°C° 1.8 mm 5 mps 693 mmHg 81%
    17:00 +25°C° 1.8 mm 4 mps 693 mmHg 84%
    18:00 +24°C° 1.8 mm 3 mps 693 mmHg 87%
    19:00 +24°C° 0.8 mm 3 mps 693 mmHg 87%
    20:00 +24°C° 0.8 mm 3 mps 694 mmHg 87%
    21:00 +24°C° 0.8 mm 2 mps 695 mmHg 88%
    22:00 +22°C° 0.5 mm 3 mps 695 mmHg 88%
    23:00 +22°C° 0.5 mm 4 mps 695 mmHg 88%

    27 February, Thursday

    Time Temperature Precipitation Wind Pressure Humidity
    00:00 +21°C° 0.5 mm 4 mps 695 mmHg 88%
    01:00 +21°C° 0.6 mm 5 mps 695 mmHg 87%
    02:00 +20°C° 0.6 mm 5 mps 695 mmHg 86%
    03:00 +20°C° 0.6 mm 5 mps 695 mmHg 86%
    04:00 +20°C° 0.2 mm 5 mps 695 mmHg 84%
    05:00 +19°C° 0.2 mm 4 mps 695 mmHg 83%
    06:00 +19°C° 0.2 mm 4 mps 695 mmHg 81%
    07:00 +20°C° 0 mm 4 mps 696 mmHg 80%
    08:00 +20°C° 0 mm 4 mps 696 mmHg 78%
    09:00 +20°C° 0 mm 3 mps 697 mmHg 76%
    10:00 +22°C° 0 mm 4 mps 697 mmHg 70%
    11:00 +23°C° 0 mm 4 mps 697 mmHg 63%
    12:00 +25°C° 0 mm 4 mps 697 mmHg 57%
    13:00 +25°C° 0 mm 4 mps 697 mmHg 58%
    14:00 +25°C° 0 mm 4 mps 696 mmHg 58%
    15:00 +25°C° 0 mm 5 mps 696 mmHg 59%
    16:00 +23°C° 0 mm 5 mps 696 mmHg 63%
    17:00 +22°C° 0 mm 4 mps 696 mmHg 67%
    18:00 +21°C° 0 mm 4 mps 695 mmHg 71%
    19:00 +20°C° 0 mm 4 mps 696 mmHg 73%
    20:00 +20°C° 0 mm 4 mps 696 mmHg 75%
    21:00 +19°C° 0 mm 4 mps 697 mmHg 77%
    22:00 +19°C° 0 mm 3 mps 697 mmHg 79%
    23:00 +19°C° 0 mm 3 mps 697 mmHg 80%
    Show more